Home > Weather > Pullman > Past weeks

Flag for USA Weather for the Past 2 Weeks in Pullman, Washington, USA

Now
60 °F

Sunny.


Feels Like: 60 °F
Forecast: 53 / 76 °F
Wind: No wind

Location: Pullman / Moscow Regional Airport

Current Time: May 3, 2016 at 9:24:21 PM

Latest Report: May 3, 2016 at 8:53 PM


Visibility: 10 mi

Pressure: 29.96 "Hg (27.53 "Hg at 715m altitude)

Humidity: 60%

Dew Point: 46 °F

Location of PullmanLocation

Historic Weather in Pullman — Graph

°F

Pullman Temperature Yesterday

Maximum temperature yesterday: 77 °F (at 4:53 PM)
Minimum temperature yesterday: 44 °F (at 4:53 AM)
Average temperature yesterday: 61 °F

High & Low Weather Summary for the Past Weeks

 TemperatureHumidityPressure
High82 °F (Apr 20, 4:53 PM)93% (Apr 29, 10:53 AM)30.28 "Hg (Apr 29, 10:53 AM)
Low35 °F (Apr 25, 5:53 AM)20% (Apr 20, 4:53 PM)29.53 "Hg (Apr 22, 3:53 AM)
Average55 °F61%29.97 "Hg
* Reported Apr 18 7:53 PM — May 3 7:53 PM, Pullman, Weather by CustomWeather, © 2016

Note: Actual official high and low records may vary slightly from our data, if they occured in-between our weather recording intervals... More about our weather records

Advertising

Pullman Weather History for the Previous 24 Hours

Scroll right to see more
 ConditionsComfort  
Time TempWeatherWind HumidityBarometerVisibility
7:53 PM
Tue, May 3
67 °FSunny.No wind47%29.94 "Hg10 mi
6:53 PM74 °FSunny.5 mph31%29.94 "Hg10 mi
5:53 PM78 °FSunny.7 mph23%29.96 "Hg10 mi
4:53 PM79 °FSunny.12 mph20%29.98 "Hg10 mi
3:53 PM79 °FSunny.8 mph20%29.99 "Hg10 mi
2:53 PM78 °FSunny.12 mph24%30.02 "Hg10 mi
1:53 PM78 °FSunny.8 mph25%30.04 "Hg10 mi
12:53 PM77 °FSunny.12 mph30%30.06 "Hg10 mi
11:53 AM74 °FSunny.10 mph36%30.07 "Hg10 mi
10:53 AM70 °FSunny.13 mph42%30.09 "Hg10 mi
9:53 AM69 °FSunny.15 mph44%30.09 "Hg10 mi
8:53 AM65 °FSunny.10 mph49%30.09 "Hg10 mi
7:53 AM62 °FSunny.8 mph50%30.08 "Hg10 mi
6:53 AM57 °FSunny.5 mph60%30.08 "Hg10 mi
5:53 AM53 °FClear.6 mph64%30.07 "Hg10 mi
4:53 AM53 °FClear.7 mph64%30.06 "Hg10 mi
3:53 AM56 °FClear.6 mph55%30.06 "Hg10 mi
2:53 AM53 °FClear.No wind64%30.05 "Hg10 mi
1:53 AM51 °FClear.5 mph74%30.05 "Hg10 mi
12:53 AM49 °FClear.No wind80%30.06 "Hg10 mi
11:53 PM
Mon, May 2
51 °FClear.No wind77%30.05 "Hg10 mi
10:53 PM54 °FClear.No wind72%30.05 "Hg10 mi
9:53 PM57 °FClear.No wind67%30.05 "Hg10 mi
Weather by CustomWeather, © 2016

See weather overviewHow to use our weather pages